Aitkin, MN

1:52 AM CST on February 22, 2017 (GMT -0600)
Aitkin Municipal / Steve Kurtz Field

Weather History for KAIT - August, 2013

Change the Weather History Date:

Saturday, August 31, 2013

  Actual Average Record
Temperature  
Mean Temperature 73 °F -  
Max Temperature 87 °F 74 °F 91 °F (1961)
Min Temperature 59 °F 51 °F 33 °F (1970)
Cooling Degree Days 8    
Growing Degree Days 23 (Base 50)    
Moisture  
Dew Point 62 °F    
Average Humidity 73    
Maximum Humidity 83    
Minimum Humidity 49    
Precipitation  
Precipitation 0.05 in - - ()
Sea Level Pressure  
Sea Level Pressure 29.82 in    
Wind  
Wind Speed 3 mph (South)    
Max Wind Speed 18 mph    
Max Gust Speed 22 mph    
Visibility 10 miles    
Events Rain , Thunderstorm    
Averages and records for this station are not official NWS values.
T = Trace of Precipitation, MM = Missing Value Source: NWS Daily Summary

Daily Weather History Graph

Daily Weather History Graph

Search for Another Location

Airport or City:

Trip Planner

Search our weather history database for the weather conditions in past years. The results will help you decide how hot, cold, wet, or windy it might be!

Date:

Astronomy

Aug. 31, 2013 Rise Set
Actual Time 6:33 AM CDT 7:55 PM CDT
Civil Twilight 6:02 AM CDT 8:26 PM CDT
Nautical Twilight 5:24 AM CDT 9:04 PM CDT
Astronomical Twilight 4:44 AM CDT 9:44 PM CDT
Moon 1:53 AM CDT (8/31) 5:03 PM CDT (8/31)
Length of Visible Light 14h 23m
Length of Day
13h 21m
Waning Crescent, 21% of the Moon is Illuminated
Aug 31
Waning Crescent
Sep 5
New
Sep 12
First Quarter
Sep 19
Full
Sep 26
Last Quarter

Hourly Weather History & Observations

Time (CDT) Temp. Heat Index Dew Point Humidity Pressure Visibility Wind Dir Wind Speed Gust Speed Precip Events Conditions
12:13 AM 59.0 °F - 53.6 °F 82% 29.91 in 10.0 mi Calm Calm - N/A   Clear
12:32 AM 59.0 °F - 53.6 °F 82% 29.91 in 4.0 mi Calm Calm - N/A   Haze
12:52 AM 60.8 °F - 55.4 °F 82% 29.90 in 7.0 mi SE 3.5 mph - N/A   Clear
1:13 AM 64.4 °F - 57.2 °F 77% 29.91 in 10.0 mi ESE 3.5 mph - N/A   Clear
1:32 AM 60.8 °F - 55.4 °F 82% 29.92 in 10.0 mi Calm Calm - N/A   Clear
1:53 AM 59.0 °F - 53.6 °F 82% 29.93 in 7.0 mi Calm Calm - N/A   Clear
2:13 AM 60.8 °F - 53.6 °F 77% 29.92 in 7.0 mi Calm Calm - N/A   Clear
2:32 AM 59.0 °F - 53.6 °F 82% 29.92 in 1.0 mi Calm Calm - N/A   Haze
2:53 AM 60.8 °F - 55.4 °F 82% 29.90 in 10.0 mi SSE 3.5 mph - N/A   Clear
3:13 AM 62.6 °F - 57.2 °F 82% 29.90 in 10.0 mi SE 3.5 mph - N/A   Clear
3:32 AM 62.6 °F - 57.2 °F 82% 29.90 in 10.0 mi South 3.5 mph - N/A   Clear
3:53 AM 62.6 °F - 57.2 °F 82% 29.89 in 10.0 mi SSE 3.5 mph - N/A   Clear
4:13 AM 64.4 °F - 59.0 °F 83% 29.89 in 10.0 mi South 3.5 mph - N/A   Clear
4:32 AM 62.6 °F - 57.2 °F 82% 29.89 in 10.0 mi Calm Calm - N/A   Clear
4:53 AM 62.6 °F - 57.2 °F 82% 29.86 in 10.0 mi SSE 5.8 mph - N/A   Clear
5:12 AM 64.4 °F - 57.2 °F 77% 29.86 in 10.0 mi Calm Calm - N/A   Clear
5:33 AM 64.4 °F - 57.2 °F 77% 29.85 in 10.0 mi Calm Calm - N/A   Clear
5:53 AM 64.4 °F - 59.0 °F 83% 29.85 in 10.0 mi Calm Calm - N/A   Clear
6:12 AM 62.6 °F - 57.2 °F 82% 29.86 in 10.0 mi Calm Calm - N/A   Clear
6:33 AM 64.4 °F - 57.2 °F 77% 29.85 in 10.0 mi Calm Calm - N/A   Clear
6:53 AM 64.4 °F - 59.0 °F 83% 29.86 in 10.0 mi Calm Calm - N/A   Clear
7:12 AM 62.6 °F - 57.2 °F 82% 29.86 in 10.0 mi Calm Calm - N/A   Clear
7:33 AM 64.4 °F - 57.2 °F 77% 29.86 in 7.0 mi Calm Calm - N/A   Clear
7:53 AM 64.4 °F - 59.0 °F 83% 29.85 in 10.0 mi Calm Calm - N/A   Clear
8:12 AM 68.0 °F - 62.6 °F 83% 29.85 in 10.0 mi South 3.5 mph - N/A   Clear
8:33 AM 69.8 °F - 62.6 °F 78% 29.85 in 10.0 mi South 4.6 mph - N/A   Clear
8:53 AM 71.6 °F - 64.4 °F 78% 29.85 in 10.0 mi South 9.2 mph - N/A   Clear
9:12 AM 73.4 °F - 64.4 °F 73% 29.85 in 10.0 mi South 6.9 mph - N/A   Clear
9:33 AM 73.4 °F - 66.2 °F 78% 29.84 in 10.0 mi South 8.1 mph - N/A   Clear
9:53 AM 75.2 °F - 66.2 °F 73% 29.84 in 10.0 mi South 9.2 mph - N/A   Clear
10:12 AM 75.2 °F - 66.2 °F 73% 29.85 in 10.0 mi South 5.8 mph - N/A   Clear
10:33 AM 77.0 °F - 66.2 °F 69% 29.85 in 10.0 mi South 4.6 mph - N/A   Clear
10:53 AM 78.8 °F - 66.2 °F 65% 29.84 in 10.0 mi South 8.1 mph - N/A   Clear
11:12 AM 78.8 °F - 66.2 °F 65% 29.85 in 10.0 mi SSW 5.8 mph - N/A   Clear
11:33 AM 78.8 °F - 66.2 °F 65% 29.84 in 10.0 mi SSW 8.1 mph - N/A   Clear
11:53 AM 80.6 °F 82.7 °F 66.2 °F 61% 29.83 in 10.0 mi SSW 8.1 mph - N/A   Clear
12:12 PM 80.6 °F 82.7 °F 66.2 °F 61% 29.83 in 10.0 mi SSW 8.1 mph - N/A   Clear
12:33 PM 80.6 °F 82.7 °F 66.2 °F 61% 29.82 in 10.0 mi SSW 6.9 mph - N/A   Clear
12:53 PM 82.4 °F 85.4 °F 68.0 °F 62% 29.81 in 10.0 mi SSW 6.9 mph - N/A   Clear
1:12 PM 82.4 °F 85.4 °F 68.0 °F 62% 29.81 in 10.0 mi SSW 8.1 mph - N/A   Clear
1:32 PM 82.4 °F 85.4 °F 68.0 °F 62% 29.80 in 10.0 mi South 6.9 mph - N/A   Clear
1:53 PM 84.2 °F 87.3 °F 68.0 °F 58% 29.80 in 10.0 mi South 8.1 mph - N/A   Clear
2:13 PM 84.2 °F 87.3 °F 68.0 °F 58% 29.80 in 10.0 mi SW 4.6 mph - N/A   Clear
2:32 PM 86.0 °F 89.4 °F 68.0 °F 55% 29.78 in 10.0 mi South 9.2 mph - N/A   Clear
2:53 PM 86.0 °F 89.4 °F 68.0 °F 55% 29.78 in 10.0 mi SW 9.2 mph - N/A   Clear
3:13 PM 87.8 °F 90.4 °F 66.2 °F 49% 29.77 in 10.0 mi SSW 9.2 mph - N/A   Clear
3:32 PM 87.8 °F 92.6 °F 69.8 °F 55% 29.77 in 10.0 mi South 4.6 mph - N/A   Clear
3:53 PM 87.8 °F 91.4 °F 68.0 °F 52% 29.77 in 10.0 mi Calm Calm - N/A   Clear
4:12 PM 87.8 °F 91.4 °F 68.0 °F 52% 29.76 in 10.0 mi South 8.1 mph - N/A   Clear
4:32 PM 87.8 °F 92.6 °F 69.8 °F 55% 29.75 in 10.0 mi SSE 5.8 mph - N/A   Clear
4:53 PM 87.8 °F 90.4 °F 66.2 °F 49% 29.73 in 10.0 mi Calm Calm - N/A   Clear
5:12 PM 87.8 °F 91.4 °F 68.0 °F 52% 29.73 in 10.0 mi SSE 5.8 mph - N/A   Clear
5:32 PM 82.4 °F 86.3 °F 69.8 °F 66% 29.74 in 10.0 mi Calm Calm - N/A   Clear
5:53 PM 80.6 °F 83.9 °F 69.8 °F 70% 29.78 in 10.0 mi SW 3.5 mph - N/A   Scattered Clouds
6:13 PM 78.8 °F - 69.8 °F 74% 29.79 in 10.0 mi NNW 15.0 mph 19.6 mph N/A   Scattered Clouds
6:32 PM 71.6 °F - 64.4 °F 78% 29.82 in 10.0 mi NW 6.9 mph - N/A Rain , Thunderstorm Light Thunderstorms and Rain
6:53 PM 69.8 °F - 64.4 °F 83% 29.78 in 10.0 mi SE 11.5 mph - 0.04 in Rain , Thunderstorm Light Thunderstorms and Rain
7:13 PM 69.8 °F - 62.6 °F 78% 29.70 in 10.0 mi ENE 18.4 mph 21.9 mph 0.01 in Rain , Thunderstorm Light Thunderstorms and Rain
7:32 PM 69.8 °F - 62.6 °F 78% 29.71 in 10.0 mi Calm Calm - 0.01 in   Clear
7:53 PM 69.8 °F - 64.4 °F 83% 29.72 in 10.0 mi SE 4.6 mph - 0.01 in   Clear
8:12 PM 71.6 °F - 64.4 °F 78% 29.72 in 10.0 mi NW 3.5 mph - N/A   Clear
8:32 PM 69.8 °F - 62.6 °F 78% 29.75 in 10.0 mi Calm Calm - N/A   Clear
8:53 PM 66.2 °F - 60.8 °F 83% 29.75 in 10.0 mi Calm Calm - N/A   Clear
9:12 PM 66.2 °F - 60.8 °F 83% 29.75 in 10.0 mi Calm Calm - N/A   Clear
9:32 PM 64.4 °F - 59.0 °F 83% 29.76 in 10.0 mi Calm Calm - N/A   Clear
9:53 PM 64.4 °F - 57.2 °F 77% 29.77 in 10.0 mi Calm Calm - N/A   Clear
10:12 PM 64.4 °F - 59.0 °F 83% 29.77 in 10.0 mi Calm Calm - N/A   Clear
10:33 PM 66.2 °F - 60.8 °F 83% 29.75 in 10.0 mi SSW 3.5 mph - N/A   Clear
10:53 PM 66.2 °F - 60.8 °F 83% 29.74 in 10.0 mi Calm Calm - N/A   Clear
11:12 PM 66.2 °F - 60.8 °F 83% 29.73 in 10.0 mi Calm Calm - N/A   Clear
11:32 PM 64.4 °F - 59.0 °F 83% 29.74 in 10.0 mi Calm Calm - N/A   Clear
11:53 PM 66.2 °F - 60.8 °F 83% 29.72 in 10.0 mi Calm Calm - N/A   Clear